GW6369 Weather Reports


Display with metric or nautical units.
time (UTC)temp
F
wind
direction
speed
MPH
gust
MPH
rain 1hr
in
rain 24hr
in
rain mn
in
humidity
%
barometer
mb
20260506132024 59 259 6.0 13.0 0.00 0.00 0.00 85 1010.2
20260506131520 58 316 4.0 6.0 0.00 0.00 0.00 86 1010.2
20260506131017 58 184 9.0 13.0 0.00 0.00 0.00 86 1010.4
20260506130514 57 192 6.0 10.0 0.00 0.00 0.00 87 1010.2
20260506130011 57 121 2.0 2.0 0.00 0.00 0.00 87 1010.3
20260506125509 57 59 3.0 4.0 0.00 0.00 0.00 87 1010.4
20260506125007 58 212 2.0 6.0 0.00 0.00 0.00 86 1010.3
20260506124504 58 204 6.0 9.0 0.00 0.00 0.00 86 1010.2
20260506124002 58 294 5.0 8.0 0.00 0.00 0.00 86 1010.2
20260506123500 59 281 3.0 4.0 0.00 0.00 0.00 85 1010.3
20260506122958 59 204 4.0 6.0 0.00 0.00 0.00 85 1010.4
20260506122454 59 161 5.0 9.0 0.00 0.00 0.00 85 1010.4
20260506121953 59 86 6.0 8.0 0.00 0.00 0.00 85 1010.4
20260506121449 59 172 4.0 8.0 0.00 0.00 0.00 86 1010.5
20260506120946 59 194 4.0 8.0 0.00 0.00 0.00 86 1010.6
20260506120443 58 221 8.0 11.0 0.00 0.00 0.00 86 1010.4
20260506115941 58 209 6.0 13.0 0.00 0.00 0.00 87 1010.6
20260506115439 58 190 9.0 14.0 0.00 0.00 0.00 87 1010.7
20260506114937 58 235 6.0 8.0 0.00 0.00 0.00 87 1010.6
20260506114434 58 166 4.0 6.0 0.00 0.00 0.00 87 1010.6
20260506113932 57 179 5.0 7.0 0.00 0.00 0.00 88 1010.3
20260506113430 57 256 5.0 8.0 0.00 0.00 0.00 88 1010.3
20260506112926 57 266 4.0 6.0 0.00 0.00 0.00 88 1010.3
20260506112424 57 183 8.0 9.0 0.00 0.00 0.00 88 1010.1
20260506111921 57 153 4.0 7.0 0.00 0.00 0.00 89 1010.5
20260506111419 57 169 5.0 8.0 0.00 0.00 0.00 90 1010.4
20260506110916 57 212 6.0 11.0 0.00 0.00 0.00 90 1010.4
20260506110414 56 273 4.0 6.0 0.00 0.00 0.00 91 1010.5
20260506105910 56 142 5.0 11.0 0.00 0.00 0.00 91 1010.6
20260506105406 55 200 4.0 7.0 0.00 0.00 0.00 91 1010.5
20260506104904 55 197 6.0 9.0 0.00 0.00 0.00 91 1010.4
20260506104401 56 199 5.0 6.0 0.00 0.00 0.00 91 1010.3
20260506103859 56 232 6.0 14.0 0.00 0.00 0.00 91 1010.2
20260506103356 55 216 6.0 8.0 0.00 0.00 0.00 92 1010.3
20260506102853 55 203 4.0 7.0 0.00 0.00 0.00 92 1010.2
20260506102352 55 155 2.0 3.0 0.00 0.00 0.00 92 1010.3
20260506101848 55 237 6.0 8.0 0.00 0.00 0.00 92 1010.0
20260506101344 55 236 2.0 3.0 0.00 0.00 0.00 92 1010.2
20260506100842 55 177 3.0 4.0 0.00 0.00 0.00 92 1010.1
20260506100340 55 249 3.0 4.0 0.00 0.00 0.00 92 1010.1
20260506095838 55 212 7.0 11.0 0.00 0.00 0.00 92 1010.1
20260506095335 55 197 5.0 8.0 0.00 0.00 0.00 92 1010.1
20260506094832 55 106 2.0 2.0 0.00 0.00 0.00 92 1010.0
20260506094331 55 350 3.0 6.0 0.00 0.00 0.00 92 1010.1
20260506093829 55 250 5.0 10.0 0.00 0.00 0.00 92 1010.2
20260506093326 55 224 2.0 2.0 0.00 0.00 0.00 92 1010.1
20260506092823 55 100 5.0 7.0 0.00 0.00 0.00 92 1010.2
20260506092321 55 199 5.0 8.0 0.00 0.00 0.00 91 1010.2
20260506091818 55 180 4.0 8.0 0.00 0.00 0.00 91 1010.3
20260506091315 55 175 7.0 9.0 0.00 0.00 0.00 91 1010.2
20260506090813 55 179 3.0 6.0 0.00 0.00 0.00 91 1010.3
20260506090310 55 243 8.0 13.0 0.00 0.00 0.00 91 1010.4
20260506085807 55 262 4.0 6.0 0.00 0.00 0.00 91 1010.6
20260506085305 55 155 8.0 10.0 0.00 0.00 0.00 91 1010.3
20260506084759 55 358 2.0 6.0 0.00 0.00 0.00 91 1010.4
20260506084256 55 221 6.0 11.0 0.00 0.00 0.00 91 1010.5
20260506083753 55 183 7.0 13.0 0.00 0.00 0.00 91 1010.6
20260506083251 55 224 2.0 3.0 0.00 0.00 0.00 90 1010.6
20260506082748 55 178 3.0 8.0 0.00 0.00 0.00 90 1010.3
20260506082243 55 178 3.0 8.0 0.00 0.00 0.00 90 1010.3
20260506081741 55 172 6.0 7.0 0.00 0.00 0.00 90 1010.6
20260506081238 55 187 4.0 6.0 0.00 0.00 0.00 90 1010.4
20260506080737 55 212 2.0 2.0 0.00 0.00 0.00 90 1010.3
20260506080232 55 225 4.0 6.0 0.00 0.00 0.00 90 1010.5
20260506073217 56 207 6.0 8.0 0.00 0.00 0.00 89 1010.8
20260506072713 56 246 4.0 6.0 0.00 0.00 0.00 89 1011.0
20260506072211 56 218 5.0 6.0 0.00 0.00 0.00 89 1010.9
20260506071708 56 145 6.0 9.0 0.00 0.00 0.00 89 1010.8
20260506071206 56 299 2.0 3.0 0.00 0.00 0.00 88 1011.0
20260506070703 56 202 4.0 8.0 0.00 0.00 0.00 88 1010.9
20260506070200 56 344 4.0 6.0 0.00 0.00 0.00 88 1011.0
20260506062137 56 174 6.0 9.0 0.00 0.00 0.00 87 1010.7
20260506061633 56 134 4.0 6.0 0.00 0.00 0.00 87 1010.6
20260506061131 56 234 5.0 9.0 0.00 0.00 0.00 87 1010.9
20260506060629 56 201 4.0 8.0 0.00 0.00 0.00 87 1010.8
20260506060125 56 333 6.0 10.0 0.00 0.00 0.00 87 1010.8
20260506051057 57 170 6.0 7.0 0.00 0.00 0.00 85 1011.2
20260506050555 57 230 8.0 10.0 0.00 0.00 0.00 85 1010.8
20260506045046 57 171 5.0 8.0 0.00 0.00 0.00 85 1011.0
20260506044544 57 268 5.0 7.0 0.00 0.00 0.00 85 1011.1
20260506044040 57 195 5.0 6.0 0.00 0.00 0.00 84 1011.1
20260506043537 57 200 7.0 9.0 0.00 0.00 0.00 85 1011.2
20260506043036 57 230 7.0 11.0 0.00 0.00 0.00 84 1011.2
20260506042534 57 232 6.0 11.0 0.00 0.00 0.00 84 1011.1
20260506042032 57 226 8.0 10.0 0.00 0.00 0.00 84 1011.1
20260506041531 57 226 5.0 9.0 0.00 0.00 0.00 84 1011.2
20260506041027 57 173 10.0 14.0 0.00 0.00 0.00 84 1011.2
20260506040525 57 240 6.0 11.0 0.00 0.00 0.00 83 1011.2
20260506040020 57 180 7.0 11.0 0.00 0.00 0.00 83 1011.1
20260506035518 57 180 7.0 11.0 0.00 0.00 0.00 83 1011.1
20260506035014 57 172 4.0 6.0 0.00 0.00 0.00 83 1011.0
20260506034512 58 212 6.0 8.0 0.00 0.00 0.00 82 1011.0
20260506034009 58 194 9.0 13.0 0.00 0.00 0.00 82 1010.9
20260506033506 58 202 3.0 3.0 0.00 0.00 0.00 82 1011.1
20260506033003 58 165 4.0 9.0 0.00 0.00 0.00 82 1011.2
20260506032500 58 112 4.0 4.0 0.00 0.00 0.00 82 1011.0
20260506031956 58 222 4.0 8.0 0.00 0.00 0.00 82 1011.0
20260506031454 58 202 7.0 14.0 0.00 0.00 0.00 82 1010.9
20260506030951 58 200 5.0 7.0 0.00 0.00 0.00 82 1011.1
20260506030449 58 161 9.0 11.0 0.00 0.00 0.00 82 1011.2
20260506025946 58 163 4.0 7.0 0.00 0.00 0.00 82 1011.1
20260506025443 58 220 6.0 10.0 0.00 0.00 0.00 82 1011.3
20260506024939 58 237 6.0 10.0 0.00 0.00 0.00 82 1011.1
20260506024436 58 180 6.0 11.0 0.00 0.00 0.00 82 1011.2
20260506023932 59 209 4.0 6.0 0.00 0.00 0.00 82 1011.2
20260506023429 58 245 2.0 2.0 0.00 0.00 0.00 82 1011.1
20260506022926 58 206 5.0 7.0 0.00 0.00 0.00 82 1011.3
20260506022424 58 220 3.0 6.0 0.00 0.00 0.00 82 1011.1
20260506021921 58 202 7.0 9.0 0.00 0.00 0.00 82 1011.1
20260506021418 58 237 6.0 8.0 0.00 0.00 0.00 82 1011.2
20260506020915 58 300 4.0 7.0 0.00 0.00 0.00 82 1011.2
20260506020413 58 76 6.0 8.0 0.00 0.00 0.00 81 1011.1
20260506015910 59 270 5.0 7.0 0.00 0.00 0.00 81 1011.1
20260506015408 59 288 8.0 11.0 0.00 0.00 0.00 80 1010.9
20260506014904 59 264 5.0 8.0 0.00 0.00 0.00 80 1011.0
20260506014401 59 256 7.0 9.0 0.00 0.00 0.00 80 1011.0
20260506013858 59 201 7.0 10.0 0.00 0.00 0.00 79 1010.9
20260506013356 59 173 7.0 13.0 0.00 0.00 0.00 79 1010.8
20260506012851 59 219 9.0 13.0 0.00 0.00 0.00 79 1010.9
20260506012348 59 198 7.0 10.0 0.00 0.00 0.00 79 1010.8
20260506011845 59 161 6.0 10.0 0.00 0.00 0.00 78 1010.8
20260506011342 59 231 9.0 13.0 0.00 0.00 0.00 78 1010.6
20260506010840 60 79 2.0 3.0 0.00 0.00 0.00 77 1010.8
20260506010338 60 216 8.0 13.0 0.00 0.00 0.00 77 1010.7
20260506005834 60 146 7.0 10.0 0.00 0.00 0.00 77 1010.6
20260506005331 59 246 6.0 8.0 0.00 0.00 0.00 77 1010.7
20260506004827 60 247 4.0 8.0 0.00 0.00 0.00 77 1010.4
20260506004325 60 200 5.0 6.0 0.00 0.00 0.00 76 1010.4
20260506003821 60 184 5.0 8.0 0.00 0.00 0.00 76 1010.4
20260506003317 60 188 4.0 8.0 0.00 0.00 0.00 75 1010.4
20260506002814 61 153 4.0 6.0 0.00 0.00 0.00 75 1010.3
20260506002310 60 201 4.0 6.0 0.00 0.00 0.00 75 1010.3
20260506001806 60 152 4.0 7.0 0.00 0.00 0.00 76 1010.2
20260506001303 60 127 5.0 9.0 0.00 0.00 0.00 76 1010.1
20260506000800 60 174 7.0 10.0 0.00 0.00 0.00 76 1010.0
20260506000258 60 276 4.0 6.0 0.00 0.00 0.00 76 1009.9
20260505235754 60 237 2.0 3.0 0.00 0.00 0.00 75 1009.8
20260505235252 60 193 4.0 6.0 0.00 0.00 0.00 75 1009.7
20260505234749 60 187 7.0 10.0 0.00 0.00 0.00 75 1009.5
20260505234246 60 178 4.0 7.0 0.00 0.00 0.00 75 1009.5
20260505233743 61 250 9.0 10.0 0.00 0.00 0.00 75 1009.4
20260505233241 60 191 9.0 11.0 0.00 0.00 0.00 75 1009.2
20260505232738 60 84 5.0 11.0 0.00 0.00 0.00 75 1009.3
20260505232235 60 209 5.0 11.0 0.00 0.00 0.00 75 1009.2
20260505231732 60 116 8.0 11.0 0.00 0.00 0.00 75 1009.1
20260505231231 60 225 8.0 13.0 0.00 0.00 0.00 75 1009.2
20260505230729 60 180 5.0 8.0 0.00 0.00 0.00 75 1009.1
20260505230225 60 105 6.0 9.0 0.00 0.00 0.00 75 1009.2
20260505225722 61 228 8.0 15.0 0.00 0.00 0.00 75 1009.1
20260505225219 61 176 5.0 7.0 0.00 0.00 0.00 74 1009.0
20260505224714 61 183 8.0 11.0 0.00 0.00 0.00 75 1009.2
20260505224212 61 182 9.0 17.0 0.00 0.00 0.00 75 1008.8
20260505223709 61 146 7.0 10.0 0.00 0.00 0.00 75 1009.0
20260505223205 61 168 7.0 9.0 0.00 0.00 0.00 75 1008.8
20260505222701 61 237 5.0 6.0 0.00 0.00 0.00 75 1009.0
20260505222157 61 174 8.0 14.0 0.00 0.00 0.00 74 1009.0
20260505221655 62 210 6.0 9.0 0.00 0.00 0.00 74 1008.9
20260505221151 61 195 7.0 11.0 0.00 0.00 0.00 73 1008.8
20260505220649 61 107 4.0 6.0 0.00 0.00 0.00 73 1008.9
20260505220146 62 167 8.0 14.0 0.00 0.00 0.00 72 1008.9
20260505215644 62 145 6.0 8.0 0.00 0.00 0.00 71 1008.8
20260505215142 62 197 6.0 10.0 0.00 0.00 0.00 72 1008.6
20260505214639 62 215 6.0 9.0 0.00 0.00 0.00 73 1008.8
20260505214136 62 202 11.0 16.0 0.00 0.00 0.00 72 1008.7
20260505213634 62 214 6.0 10.0 0.00 0.00 0.00 72 1008.6
20260505213130 62 186 4.0 6.0 0.00 0.00 0.00 72 1008.6
20260505212626 62 146 5.0 6.0 0.00 0.00 0.00 72 1008.5
20260505212124 63 152 11.0 18.0 0.00 0.00 0.00 71 1008.4
20260505211621 63 132 7.0 11.0 0.00 0.00 0.00 71 1008.4
20260505211118 62 232 3.0 6.0 0.00 0.00 0.00 72 1008.6
20260505210614 62 185 10.0 14.0 0.00 0.00 0.00 73 1008.5
20260505210111 62 185 7.0 10.0 0.00 0.00 0.00 74 1008.4
20260505205609 62 135 10.0 14.0 0.00 0.00 0.00 72 1008.3
20260505205107 62 233 7.0 9.0 0.00 0.00 0.00 73 1008.4
20260505204604 62 166 11.0 17.0 0.00 0.00 0.00 73 1008.4
20260505204101 62 133 7.0 13.0 0.00 0.00 0.00 74 1008.3
20260505203557 62 134 5.0 7.0 0.00 0.00 0.00 73 1008.4
20260505203055 62 215 8.0 11.0 0.00 0.00 0.00 73 1008.5
20260505202550 62 254 7.0 10.0 0.00 0.00 0.00 74 1008.3
20260505202047 62 177 9.0 11.0 0.00 0.00 0.00 74 1008.8
20260505201543 62 149 3.0 4.0 0.00 0.00 0.00 73 1008.5
20260505201041 62 171 6.0 11.0 0.00 0.00 0.00 73 1008.5
20260505200539 63 216 12.0 18.0 0.00 0.00 0.00 73 1008.6
20260505200036 63 263 5.0 7.0 0.00 0.00 0.00 73 1008.7
20260505195531 62 127 6.0 9.0 0.00 0.00 0.00 74 1008.7
20260505195029 62 229 8.0 14.0 0.00 0.00 0.00 73 1008.9
20260505194526 63 262 4.0 6.0 0.00 0.00 0.00 73 1009.0
20260505194021 63 252 5.0 10.0 0.00 0.00 0.00 72 1008.9
20260505193519 64 180 3.0 6.0 0.00 0.00 0.00 72 1009.0
20260505193016 64 210 6.0 9.0 0.00 0.00 0.00 72 1009.0
20260505192515 63 130 4.0 4.0 0.00 0.00 0.00 73 1009.3
20260505192012 63 52 3.0 4.0 0.00 0.00 0.00 74 1009.4
20260505191510 64 162 5.0 7.0 0.00 0.00 0.00 71 1009.4
20260505191008 64 131 7.0 9.0 0.00 0.00 0.00 72 1009.5
20260505190502 63 219 1.0 2.0 0.00 0.00 0.00 74 1009.6
20260505185958 63 239 7.0 9.0 0.00 0.00 0.00 73 1009.6
20260505185456 63 175 8.0 9.0 0.00 0.00 0.00 73 1009.9
20260505184951 63 167 5.0 7.0 0.00 0.00 0.00 74 1009.9
20260505184448 62 181 8.0 10.0 0.00 0.00 0.00 74 1010.0
20260505183945 62 188 6.0 8.0 0.00 0.00 0.00 74 1010.1
20260505183442 63 225 8.0 10.0 0.00 0.00 0.00 72 1010.2
20260505182938 63 226 1.0 3.0 0.00 0.00 0.00 74 1010.4
20260505182436 63 70 4.0 6.0 0.00 0.00 0.00 73 1010.4
20260505181932 63 271 4.0 8.0 0.00 0.00 0.00 73 1010.7
20260505181430 63 209 4.0 7.0 0.00 0.00 0.00 73 1010.7
20260505180926 64 201 5.0 7.0 0.00 0.00 0.00 73 1010.6
20260505180422 63 210 2.0 2.0 0.00 0.00 0.00 74 1010.7
20260505175919 64 190 4.0 4.0 0.00 0.00 0.00 72 1010.7
20260505175415 64 256 2.0 4.0 0.00 0.00 0.00 73 1010.8
20260505174912 63 215 2.0 3.0 0.00 0.00 0.00 74 1010.9
20260505174410 63 268 6.0 8.0 0.00 0.00 0.00 74 1011.1
20260505173906 63 231 4.0 6.0 0.00 0.00 0.00 74 1011.0
20260505173402 63 289 3.0 6.0 0.00 0.00 0.00 74 1010.9
20260505172859 63 245 6.0 8.0 0.00 0.00 0.00 73 1010.8
20260505172357 64 186 4.0 7.0 0.00 0.00 0.00 73 1010.9
20260505171856 62 177 5.0 6.0 0.00 0.00 0.00 76 1010.8
20260505171353 62 174 2.0 3.0 0.00 0.00 0.00 77 1011.0
20260505170850 62 180 4.0 6.0 0.00 0.00 0.00 77 1010.9
20260505170347 62 254 6.0 7.0 0.00 0.00 0.00 75 1011.0
20260505165842 63 134 4.0 6.0 0.00 0.00 0.00 73 1011.1
20260505165338 62 253 1.0 2.0 0.00 0.00 0.00 77 1011.2
20260505164834 62 96 0.0 1.0 0.00 0.00 0.00 77 1011.2
20260505164331 62 231 5.0 7.0 0.00 0.00 0.00 76 1011.4
20260505163829 63 192 7.0 9.0 0.00 0.00 0.00 74 1011.3
20260505163328 64 47 4.0 6.0 0.00 0.00 0.00 73 1011.1
20260505162826 63 151 1.0 2.0 0.00 0.00 0.00 75 1011.2
20260505162321 64 197 4.0 6.0 0.00 0.00 0.00 72 1011.2
20260505161819 65 113 3.0 6.0 0.00 0.00 0.00 71 1011.4
20260505161316 65 249 1.0 3.0 0.00 0.00 0.00 72 1011.3
20260505160813 65 232 2.0 3.0 0.00 0.00 0.00 73 1011.5
20260505160311 64 210 2.0 3.0 0.00 0.00 0.00 74 1011.3
20260505153250 64 213 2.0 3.0 0.00 0.00 0.00 73 1011.4
20260505152747 63 56 2.0 2.0 0.00 0.00 0.00 75 1011.5
20260505152243 62 229 4.0 6.0 0.00 0.00 0.00 76 1011.7
20260505151737 62 146 4.0 6.0 0.00 0.00 0.00 75 1011.7
20260505151235 62 146 2.0 4.0 0.00 0.00 0.00 76 1011.8
20260505150732 62 167 2.0 4.0 0.00 0.00 0.00 76 1012.1
20260505150230 62 267 6.0 8.0 0.00 0.00 0.00 75 1012.0
20260505140200 61 146 0.0 1.0 0.00 0.00 0.00 79 1011.6